[TLELIST] Archives

 

Current TLEs

April 1st 2007 PDT

HST 1 20580U 90037B 07090.90505231 .00000511 00000-0 26914-4 0 8414 2 20580 028.4685 334.0616 0003466 354.9517 005.1036 15.00214714728340 ISS (ZARYA) 1 25544U 98067A 07091.45419692 .00022660 00000-0 13132-3 0 9390 2 25544 051.6312 140.4486 0015499 017.5026 116.6010 15.78316213478658 CXO 1 25867U 99040B 07091.00000000 .00000325 00000-0 00000+0 0 526 2 25867 061.4327 090.9287 6122673 285.4386 001.8694 00.37805796 1960 ____________________________________________________________________ These 2-Line ...Continue Reading

Current TLEs

March 31st 2007 PDT

HST 1 20580U 90037B 07089.10883764 .00000515 00000-0 27251-4 0 8402 2 20580 028.4685 345.7708 0003472 335.3216 024.7210 15.00213492728070 ISS (ZARYA) 1 25544U 98067A 07090.43111818 .00025657 00000-0 14831-3 0 9325 2 25544 051.6315 145.7426 0015838 013.0905 064.1090 15.78278631478495 CXO 1 25867U 99040B 07091.00000000 .00000325 00000-0 00000+0 0 526 2 25867 061.4327 090.9287 6122673 285.4386 001.8694 00.37805796 1960 ____________________________________________________________________ These 2-Line ...Continue Reading

Current TLEs

March 30th 2007 PDT

HST 1 20580U 90037B 07089.10883764 .00000515 00000-0 27251-4 0 8402 2 20580 028.4685 345.7708 0003472 335.3216 024.7210 15.00213492728070 ISS (ZARYA) 1 25544U 98067A 07089.48260944 .00027255 00000-0 15758-3 0 9250 2 25544 051.6316 150.6445 0016053 009.0661 075.3240 15.78230245478340 CXO 1 25867U 99040B 07088.29166667 .00000262 00000-0 00000+0 0 514 2 25867 061.4231 090.9881 6119229 285.4965 353.0978 00.37803858 1953 ____________________________________________________________________ These 2-Line ...Continue Reading

Current TLEs

March 29th 2007 PDT

HST 1 20580U 90037B 07087.84483488 .00000471 00000-0 23752-4 0 8391 2 20580 028.4685 354.0115 0003499 321.7661 038.2691 15.00212271727882 ISS (ZARYA) 1 25544U 98067A 07 88.45466850 .00027744 00000-0 15694-3 0 9184 2 25544 051.6307 155.9553 0015657 006.2105 353.9615 15.78181869478189 CXO 1 25867U 99040B 07088.29166667 .00000262 00000-0 00000+0 0 514 2 25867 061.4231 090.9881 6119229 285.4965 353.0978 00.37803858 1953 ____________________________________________________________________ These 2-Line ...Continue Reading

Current TLEs

March 28th 2007 PDT

HST 1 20580U 90037B 07085.91556583 +.00000398 +00000-0 +18114-4 0 08556 2 20580 028.4685 006.5897 0003514 300.9468 059.0774 15.00210559727598 ISS (ZARYA) 1 25544U 98067A 07087.46150192 .00027026 00000-0 15719-3 0 9117 2 25544 051.6332 161.0826 0015394 001.4869 112.3180 15.78116648478020 CXO 1 25867U 99040B 07085.66666667 .00000206 00000-0 00000+0 0 504 2 25867 061.4148 091.0388 6115486 285.5708 355.6746 00.37800422 1945 ____________________________________________________________________ These 2-Line ...Continue Reading

Current TLEs

March 27th 2007 PDT

HST 1 20580U 90037B 07086.18167164 .00000421 00000-0 19896-4 0 8385 2 20580 028.4686 004.8542 0003484 303.8254 056.2001 15.00210937727635 ISS (ZARYA) 1 25544U 98067A 07086.44698817 .00025786 00000-0 15064-3 0 9041 2 25544 051.6327 166.3239 0015069 357.7375 108.5853 15.78056082477868 CXO 1 25867U 99040B 07085.66666667 .00000206 00000-0 00000+0 0 504 2 25867 061.4148 091.0388 6115486 285.5708 355.6746 00.37800422 1945 ____________________________________________________________________ These 2-Line ...Continue Reading

Current TLEs

March 26th 2007 PDT

HST 1 20580U 90037B 07084.85114116 .00000356 00000-0 14824-4 0 8378 2 20580 028.4683 013.5289 0003538 289.6400 070.3810 15.00209637727439 ISS (ZARYA) 1 25544U 98067A 07085.43301225 .00026453 00000-0 15475-3 0 8994 2 25544 051.6332 171.5656 0015231 353.7732 108.3483 15.78005277477709 CXO 1 25867U 99040B 07085.66666667 .00000206 00000-0 00000+0 0 504 2 25867 061.4148 091.0388 6115486 285.5708 355.6746 00.37800422 1945 ____________________________________________________________________ These 2-Line ...Continue Reading

Current TLEs

March 25th 2007 PDT

HST 1 20580U 90037B 07082.92186953 +.00000349 +00000-0 +14226-4 0 08392 2 20580 028.4683 026.1064 0003584 267.9889 092.0291 15.00208845727143 ISS (ZARYA) 1 25544U 98067A 07084.48374883 .00027552 00000-0 16138-3 0 8929 2 25544 051.6328 176.4719 0015100 350.6066 115.3578 15.77954348477556 CXO 1 25867U 99040B 07083.00000000 .00000224 00000-0 00000+0 0 491 2 25867 061.3963 091.0983 6113809 285.6399 352.5649 00.37802168 1930 ____________________________________________________________________ These 2-Line ...Continue Reading

Current TLEs

March 24th 2007 PDT

HST 1 20580U 90037B 07082.19007647 .00000366 00000-0 15590-4 0 8353 2 20580 028.4684 030.8773 0003631 259.6844 100.3338 15.00208752727035 ISS (ZARYA) 1 25544U 98067A 07083.53125160 .00015052 00000-0 90396-4 0 8859 2 25544 051.6347 181.3875 0015039 346.9147 104.6728 15.77880814477402 CXO 1 25867U 99040B 07083.00000000 .00000224 00000-0 00000+0 0 491 2 25867 061.3963 091.0983 6113809 285.6399 352.5649 00.37802168 1930 ____________________________________________________________________ These 2-Line ...Continue Reading

Current TLEs

March 23rd 2007 PDT

HST 1 20580U 90037B 07082.19007647 .00000366 00000-0 15590-4 0 8353 2 20580 028.4684 030.8773 0003631 259.6844 100.3338 15.00208752727035 ISS (ZARYA) 1 25544U 98067A 07082.45486131 .00013839 00000-0 83609-4 0 8790 2 25544 051.6344 186.9476 0014722 342.5860 110.6238 15.77842493477234 CXO 1 25867U 99040B 07083.00000000 .00000224 00000-0 00000+0 0 491 2 25867 061.3963 091.0983 6113809 285.6399 352.5649 00.37802168 1930 ____________________________________________________________________ These 2-Line ...Continue Reading
  • This mailing list is a public mailing list - anyone may join or leave, at any time.
  • This mailing list is announce-only.

International Space Station (ISS) / Hubble Space Telescope (HST) / Chandra X-Ray Observatory Orbital Data via EMAIL

Privacy Policy:

Private list